Regional Weather Roundup
Issued by NWS State College, PA

Home | Current Version | Previous Version | Text Only | Print | Product List | Glossary Off
Versions: 1 2 3 4 5 6 7 8 9 10 11 12 13 14 15 16 17 18 19 20 21 22 23 24 25 26 27 28 29 30 31 32 33 34 35 36 37 38 39 40 41 42 43 44 45 46 47 48 49 50

000
ASUS41 KCTP 280510
RWRCTP

REGIONAL WEATHER ROUNDUP
NATIONAL WEATHER SERVICE STATE COLLEGE PA
100 AM EDT WED JUN 28 2017

Note: "fair" indicates few or no clouds below 12,000 feet with no
significant weather and/or obstructions to visibility.

* = STATION THAT DOES NOT REPORT PRECIPITATION /E.G. RAIN...SNOW...ETC/
    THUNDER OR FOG.

PAZ002>004-007>009-013>016-020>023-029>032-280600-
WESTERN PENNSYLVANIA

CITY           SKY/WX    TMP DP  RH WIND       PRES   REMARKS
ERIE           MOCLDY    59  46  62 S7        30.08S
MEADVILLE      CLEAR     54  46  74 S6        30.11S
FRANKLIN*      CLEAR     50  43  76 SW5       30.12F
NEW CASTLE     FAIR      49  49 100 CALM      30.13S
BEAVER COUNTY  NOT AVBL
BUTLER*        CLEAR     50  46  87 CALM      30.13S
PITTSBURGH INT CLEAR     54  49  83 CALM      30.13R
PITTSBURGH     CLEAR     60  44  55 CALM      30.13R
INDIANA*       CLEAR     50  48  93 CALM      30.16S
LATROBE        CLEAR     50  50 100 CALM      30.14S
WASHINGTON CO* CLEAR     48  45  87 CALM      30.15S
$$

PAZ004>006-010>012-017>019-024>028-033>037-041-042-045-046-049>053-280600-
CENTRAL PENNSYLVANIA

CITY           SKY/WX    TMP DP  RH WIND       PRES   REMARKS
BRADFORD       CLEAR     45  44  97 CALM      30.11S
DUBOIS         CLEAR     49  45  86 SW3       30.12S
CLEARFIELD     CLEAR     51  50  96 SW3       30.13R
JOHNSTOWN      CLEAR     53  46  77 W5        30.14S
ALTOONA        CLEAR     53  48  83 SW3       30.13S
STATE COLLEGE  CLEAR     54  47  77 W6        30.11S
WILLIAMSPORT   CLEAR     54  53  97 N3        30.07S
SELINSGROVE    CLEAR     54  52  93 CALM      30.09S
FT INDIANTOWN  CLEAR     62  48  58 W6        30.08S
CAPITAL CITY   CLEAR     59  48  67 W6        30.09S
HARRISBURG     CLEAR     64  51  62 W9        30.08R
YORK           CLEAR     55  51  86 CALM      30.10R
$$

PAZ038>040-043-044-047-048-054-055-060>062-067>071-280600-
EASTERN PENNSYLVANIA

CITY           SKY/WX    TMP DP  RH WIND       PRES   REMARKS
SCRANTON       CLEAR     58  50  75 SW6       30.06R
MOUNT POCONO   CLEAR     51  47  86 W9        30.06R
ALLENTOWN      CLEAR     57  48  72 SW7       30.06R
QUAKERTOWN*    CLEAR     59  48  67 CALM      30.08R
READING        CLEAR     61  51  70 CALM      30.07R
LANCASTER      CLEAR     60  51  72 W6        30.08S
COATESVILLE    CLEAR     57  50  77 NW6       30.10R
POTTSTOWN      CLEAR     60  47  61 CALM      30.09R
BLUE BELL      CLEAR     59  48  67 CALM      30.09R
DOYLESTOWN     CLEAR     61  49  64 W7        30.06R
WILLOW GROVE   NOT AVBL
NORTH PHILA    CLEAR     65  48  54 NW6       30.08R
PHILADELPHIA   PTCLDY    67  47  48 NW8       30.07R
$$




USA.gov is the U.S. government's official web portal to all federal, state and local government web resources and services.